Sussex, NJ

9:12 AM EDT on July 20, 2017 (GMT -0400)
Sussex

Weather History for KFWN - March, 2014

Change the Weather History Date:

Friday, March 28, 2014

  Actual Average Record
Temperature  
Mean Temperature 44 °F -  
Max Temperature 57 °F 52 °F 74 °F (1949)
Min Temperature 34 °F 27 °F 15 °F (1956)
Degree Days  
Heating Degree Days 21    
Moisture  
Dew Point 37 °F    
Average Humidity 77    
Maximum Humidity 93    
Minimum Humidity 45    
Precipitation  
Precipitation 0.00 in - - ()
Sea Level Pressure  
Sea Level Pressure 30.05 in    
Wind  
Wind Speed 3 mph (SW)    
Max Wind Speed 8 mph    
Max Gust Speed -    
Visibility 6 miles    
Events Fog    
Averages and records for this station are not official NWS values.
T = Trace of Precipitation, MM = Missing Value Source: NWS Daily Summary

Daily Weather History Graph

Daily Weather History Graph

Search for Another Location

Airport or City:

Trip Planner

Search our weather history database for the weather conditions in past years. The results will help you decide how hot, cold, wet, or windy it might be!

Date:

Astronomy

Mar. 28, 2014 Rise Set
Actual Time 6:48 AM EDT 7:19 PM EDT
Civil Twilight 6:20 AM EDT 7:46 PM EDT
Nautical Twilight 5:48 AM EDT 8:19 PM EDT
Astronomical Twilight 5:14 AM EDT 8:53 PM EDT
Moon 5:19 AM EDT (3/28) 5:11 PM EDT (3/28)
Length of Visible Light 13h 26m
Length of Day
12h 30m
Waning Crescent, 6% of the Moon is Illuminated
Mar 28
Waning Crescent
Mar 30
New
Apr 7
First Quarter
Apr 15
Full
Apr 22
Last Quarter

Hourly Weather History & Observations

Time (EDT) Temp. Windchill Dew Point Humidity Pressure Visibility Wind Dir Wind Speed Gust Speed Precip Events Conditions
12:53 AM 37.9 °F 33.5 °F 18.0 °F 45% 30.20 in 10.0 mi SSW 5.8 mph - N/A   Partly Cloudy
1:53 AM 37.0 °F 34.5 °F 19.0 °F 48% 30.18 in 10.0 mi SSW 3.5 mph - N/A   Clear
2:53 AM 35.1 °F - 19.9 °F 54% 30.15 in 10.0 mi Calm Calm - N/A   Clear
3:53 AM 35.1 °F - 19.9 °F 54% 30.13 in 10.0 mi Calm Calm - N/A   Clear
4:53 AM 34.0 °F - 21.9 °F 61% 30.11 in 10.0 mi Calm Calm - N/A   Mostly Cloudy
5:53 AM 34.0 °F - 23.0 °F 64% 30.12 in 10.0 mi Calm Calm - N/A   Mostly Cloudy
6:53 AM 36.0 °F - 23.0 °F 59% 30.10 in 10.0 mi Calm Calm - N/A   Overcast
7:53 AM 37.9 °F 35.5 °F 24.1 °F 57% 30.09 in 10.0 mi SW 3.5 mph - N/A   Overcast
8:53 AM 39.9 °F 36.7 °F 26.1 °F 58% 30.08 in 10.0 mi SSW 4.6 mph - N/A   Overcast
9:53 AM 41.0 °F 39.0 °F 30.9 °F 67% 30.08 in 10.0 mi SSW 3.5 mph - N/A   Overcast
10:53 AM 41.0 °F 38.0 °F 34.0 °F 76% 30.06 in 3.0 mi Variable 4.6 mph - N/A   Haze
11:37 AM 43.0 °F 39.5 °F 37.9 °F 82% 30.04 in 6.0 mi SW 5.8 mph - N/A   Haze
11:53 AM 43.0 °F 40.3 °F 39.0 °F 86% 30.05 in 5.0 mi Variable 4.6 mph - N/A   Overcast
12:21 PM 44.1 °F - 39.9 °F 85% 30.01 in 2.5 mi Calm Calm - N/A   Overcast
12:25 PM 44.1 °F 42.5 °F 41.0 °F 89% 30.00 in 3.0 mi SW 3.5 mph - N/A   Overcast
12:32 PM 45.0 °F 42.6 °F 41.0 °F 86% 30.00 in 4.0 mi SW 4.6 mph - N/A   Overcast
12:42 PM 45.0 °F 42.6 °F 41.0 °F 86% 30.01 in 5.0 mi Variable 4.6 mph - N/A   Overcast
12:53 PM 46.0 °F 43.9 °F 42.1 °F 86% 30.01 in 4.0 mi SSW 4.6 mph - N/A   Overcast
1:53 PM 46.0 °F 43.9 °F 42.1 °F 86% 30.00 in 4.0 mi WSW 4.6 mph - N/A   Overcast
2:53 PM 46.9 °F - 43.0 °F 86% 29.98 in 4.0 mi SW 3.5 mph - N/A   Overcast
3:53 PM 48.0 °F - 44.1 °F 86% 29.97 in 5.0 mi WSW 4.6 mph - N/A   Overcast
4:53 PM 48.9 °F - 45.0 °F 86% 29.97 in 5.0 mi SSW 8.1 mph - N/A   Overcast
5:36 PM 51.1 °F - 46.0 °F 83% 29.96 in 5.0 mi SSW 8.1 mph - N/A   Haze
5:53 PM 51.1 °F - 46.9 °F 86% 29.97 in 5.0 mi SW 5.8 mph - N/A   Overcast
6:53 PM 52.0 °F - 46.9 °F 83% 29.99 in 6.0 mi South 3.5 mph - N/A   Haze
7:18 PM 50.0 °F - 45.0 °F 83% 29.98 in 5.0 mi Calm Calm - N/A   Haze
7:53 PM 48.0 °F - 46.0 °F 93% 29.99 in 4.0 mi Calm Calm - N/A   Overcast
8:53 PM 48.9 °F - 46.0 °F 90% 30.01 in 4.0 mi SW 3.5 mph - N/A   Overcast
9:53 PM 54.0 °F - 48.0 °F 80% 30.04 in 8.0 mi SW 4.6 mph - N/A   Overcast
10:53 PM 51.1 °F - 46.9 °F 86% 30.05 in 5.0 mi Calm Calm - N/A   Mostly Cloudy
11:27 PM 48.0 °F - 45.0 °F 89% 30.07 in 2.0 mi Calm Calm - N/A   Partly Cloudy
11:38 PM 46.9 °F - 43.0 °F 86% 30.07 in 1.2 mi Calm Calm - N/A   Partly Cloudy
11:46 PM 46.0 °F - 43.0 °F 89% 30.08 in 0.5 mi Calm Calm - N/A Fog Fog
11:53 PM 45.0 °F - 42.1 °F 90% 30.09 in 1.0 mi Calm Calm - N/A   Mist